1st Responders/1st Detectors/Storm Spotters Weather Summary for Simpson County, KY

Forecast Maps


Reg. NEXRAD Animation


National Fire Danger: Day 1 & 2 Map

Current NWS Watch/Warnings

SPC Convective Day 1 Outlook


Day 2 Outlook

(Click images to enlarge|Page will refresh every 5 minutes)
UK Ag. Weather Center Desktop Severe Weather Service[HERE]
Simpson County, KY Hazardous Weather Outlook Webcast
(9 AM to 9 PM Mon-Fri)
[Fast]
[Dial-up]


UKAWC 1st Detectors/1st Responders Precision Weather Forecast For SIMPSON County, Kentucky
(based on the NWS County Digital Forecast)

ISSUED AT 14:00 UTC ON TUESDAY DEC 10 2019
DAY TUESDAY
CDT 3HR 10A 11A NOON 1P 2P 3P 4P 5P 6P
MAX/MIN -- -- -- -- -- -- -- -- 36°
TEMP 31° 31° 31° 31° 31° 31° 31° 31° 31°
SKY COVER 98% 98% 97% 98% 97% 99% 91% 98% 100%
Clouds
DEW PT 25° 23° 22° 20° 20° 20° 18° 20° 20°
RH 74% 72% 66% 63% 61% 60% 58% 60% 62%
POP 12HR -- -- -- -- -- -- -- -- --
RAIN/SNOW (liq.equ) -- -- -- 0.01in -- -- -- -- --
SNOWFALL -- -- -- 0in -- -- -- -- --
WIND SPEED(MPH) 9 9 8 7 7 7 7 7 6
WIND Gust(MPH) 15 15 15 15 13 9 10 9 9
WIND DIR NW NW NW NW NW NW NW NW N
DEW -- -- -- -- -- -- -- -- --
HeatIndex 23 23 24 24 24 25 25 25 25
Snow Chance Chance Chance Chance Chance Slight Chance Slight Chance Slight Chance --
Rain -- -- -- -- -- -- -- -- --
WIND CHILL 23° 23° 24° 25° 25° 25° 25° 25° 25°
SPRAY COND
DRY COND
LIVESTOCK COLDSTRESS



DAY WEDNESDAY THURSDAY FRIDAY SATURDAY SUNDAY MONDAY
CDT 6HR 7P 8P 9P 10P 11P MIDN 1A 2A 3A 4A 5A 6A 7A 8A 9A 10A 11A NOON 1P 2P 3P 4P 5P 6P 7P 8P 9P 10P 1A 4A 7A 10A 1P 4P 7P 1A 7A 1P 7P 1A 7A 1P 7P 1A 7A 1P 7P 1A 7A 1P 7P
MAX/MIN -- -- -- -- -- -- -- -- -- -- -- -- 22° -- -- -- -- -- -- -- -- -- -- 41° -- -- -- -- -- -- 25° -- -- 47° -- -- 34° 47° -- -- 40° 50° -- -- 34° 47° -- -- 34° 47° --
TEMP 29° 29° 29° 29° 27° 27° 25° 25° 25° 25° 23° 23° 22° 25° 27° 31° 34° 36° 38° 40° 41° 40° 38° 36° 34° 31° 29° 31° 29° 29° 27° 36° 45° 45° 40° 38° 38° 45° 43° 43° 43° 49° 45° 40° 36° 43° 40° 38° 38° 45° 43°
SKY COVER 99% 99% 100% 67% 63% 30% 6% 0% 0% 0% 0% 0% 2% 2% 1% 1% 2% 2% 3% 4% 4% 5% 3% 2% 0% 3% 6% 6% 8% 13% 14% 41% 50% 72% 85% 89% 89% 90% 90% 92% 96% 89% 77% 65% 58% 50% 71% 76% 83% 87% 87%
Clouds
DEW PT 20° 20° 20° 22° 20° 20° 20° 20° 20° 20° 20° 20° 18° 18° 18° 18° 20° 20° 20° 22° 22° 22° 22° 22° 22° 22° 22° 22° 22° 22° 22° 25° 27° 29° 29° 31° 34° 40° 40° 41° 41° 40° 40° 36° 31° 31° 32° 32° 34° 38° 38°
RH 68% 69% 69% 75% 74% 77% 81% 81% 80% 80% 87% 84% 84% 77% 68% 60% 55% 49% 48% 46% 44% 48% 52% 56% 63% 65% 74% 71% 77% 74% 77% 63% 49% 51% 64% 78% 81% 82% 86% 96% 96% 73% 79% 89% 85% 61% 72% 81% 85% 73% 82%
POP 12HR 65% -- -- -- -- -- -- -- -- -- -- -- 6% -- -- -- -- -- -- -- -- -- -- -- 0% -- -- -- -- -- 1% -- -- -- 8% -- 18% -- 34% -- 33% -- 28% -- 20% -- 9% -- 28% -- 49%
RAIN/SNOW (liq.equ) 0.00in -- -- -- -- -- 0.00in -- -- -- -- -- 0.00in -- -- -- -- -- 0.00in -- -- -- -- -- 0.00in -- -- -- 0.00in -- 0.00in -- 0.00in -- 0.00in 0.00in 0.00in -- -- -- -- -- -- -- -- -- -- -- -- -- --
SNOWFALL 0in -- -- -- -- -- 0in -- -- -- -- -- 0in -- -- -- -- -- 0in -- -- -- -- -- 0in -- -- -- 0in -- 0in -- 0in -- 0in 0in 0in -- -- -- -- -- -- -- -- -- -- -- -- -- --
WIND SPEED(MPH) 5 5 5 5 2 1 1 1 2 1 1 1 1 2 2 5 6 6 6 5 5 2 2 2 2 1 1 1 2 2 5 6 6 6 2 2 2 6 1 1 5 9 7 6 6 6 5 5 6 7 6
WIND DIR N N NW NW NW NW W W W SW SW SW S S S S SW SW SW SW SW SW SW S SE NE E E E E E E E SE SE S SE S S SW SW SW W W W W E E S S S
HeatIndex 25 25 25 23 24 27 25 25 21 25 23 23 22 20 24 26 28 32 34 38 39 38 36 34 31 31 29 31 25 25 22 32 41 45 37 35 36 41 43 43 40 49 45 35 31 39 38 34 34 45 39
Snow -- -- -- -- -- -- -- -- -- -- -- -- -- -- -- -- -- -- -- -- -- -- -- -- -- -- -- -- -- -- -- -- -- -- -- -- -- -- -- -- -- -- -- -- -- -- -- -- -- -- --
Rain -- -- -- -- -- -- -- -- -- -- -- -- -- -- -- -- -- -- -- -- -- -- -- -- -- -- -- -- -- -- -- -- -- -- -- Slight Chance Chance Chance Chance Chance Chance Chance Slight Chance -- -- -- Slight Chance Chance Chance Chance Chance
WIND CHILL 24° 24° 24° 24° -- -- -- -- -- -- -- -- -- -- -- 26° 29° 31° 34° 37° 38° -- -- -- -- -- -- -- -- -- 22° 31° 42° 42° -- -- -- 42° -- -- 40° -- 41° 36° 31° 39° 37° 35° 34° 41° 39°
SPRAY COND
DRY COND
LIVESTOCK COLDSTRESS

Click on individual weather variable above in left-hand column (ie., TEMP, RH, QPF 12HR) to view state forecast maps






NWS 48 Hr. Forecast Maps,

Regional Hourly Observations For SIMPSON County, Kentucky
Issued at 900 AM EST TUE DEC 10 2019
WESTERN AND SOUTH CENTRAL KENTUCKY
  
CITY           SKY/WX    TMP DP  RH WIND       PRES   REMARKS
PADUCAH        FAIR      31  16  54 N8        30.25R WCI  23          
HENDERSON      FAIR      28  15  58 NW12      30.24R WCI  18          
OWENSBORO      FAIR      29  17  61 NW13      30.23R WCI  19          
HOPKINSVILLE   NOT AVBL                                               
BOWLING GREEN  CLOUDY    34  26  72 N3        30.20F                  
GLASGOW        CLOUDY    32  25  76 NW6       30.19R WCI  27          


Current NOWCAST not available:
Nowcasts are not issued routinely during fair weather. Only when
precipitation or other significant weather is occuring in this county will these
forecasts be issued. Currently, there is no short term forecast in effect.


Fire Weather Forecast For SIMPSON County, KY
Provided by the National Weather Service:

Issued at: Tue Dec 10 09:05:01 EST 2019

323 PM EST Mon Dec 9 2019 /223 PM CST Mon Dec 9 2019/

                      Tonight      Tue          Tue Night    Wed          

CLOUD COVER           Cloudy       Cloudy       Pcldy        Mclear       
PRECIP TYPE           Rain         Snow/Rain    Snow         None         
CHANCE PRECIP (%)     80           60           10           0            
TEMP (24H TREND)      33 (-19)     36 (-28)     22           40           
RH % (24H TREND)      91 (+9)      60 (-7)      87           44           
20FTWND-VAL/AM(MPH)                NW  7                     Lgt/Var      
20FTWND-RDG/PM(MPH)   W 11         NW  5        Lgt/Var      Lgt/Var      
PRECIP AMOUNT         0.16         0.09         0.00         0.00         
MIXING HGT(FT-AGL/MSL)             2343                      2505         
TRANSPORT WND (MPH)                NW  9                     W  7         
VENT RATE (KT-FT)                  22470                     23073        
DISPERSION                         Poor                      Poor         
DSI                   SLGT UNSTBL  STBL         STBL         STBL         
LAL                   1            1            1            1            
HAINES INDEX          2            3            4            3            
ADI EARLY             16 GEN POOR  23 FAIR      4 VERY POOR  3 VERY POOR  
ADI LATE              28 FAIR      16 GEN POOR  3 VERY POOR  0 VERY POOR  
MAX LVORI EARLY       4            3            3            5            
MAX LVORI LATE        4            3            5            2            

REMARKS...ADI IS ATMOSPHERIC DISPERSION INDEX BY LAVDAS.        
LVORI IS LOW VISIBILITY OCCURRENCE RISK INDEX.

.THURSDAY...Mostly clear. Lows in the mid 20s. Highs in the mid
40s. Light winds. 
.FRIDAY...Mostly cloudy. Lows in the lower 30s. Highs in the
upper 40s. South winds up to 5 mph. 
.SATURDAY...Cloudy with a 50 percent chance of rain. Lows in the
upper 30s. Highs around 50. West winds up to 10 mph. 
.SUNDAY...Mostly cloudy. Lows in the mid 30s. Highs in the upper
40s. Southwest winds up to 10 mph. 
.MONDAY...Mostly cloudy with a 50 percent chance of rain. Lows in
the mid 30s. Highs around 50. Southwest winds up to 10 mph. 

SPC's Fire Weather Web Tool (Excellent!), SPC's Fire Weather Outlooks, NWS Fire Weather WEB, Fire Danger Class Map,
Keetch-Byram Drought Index, ROMAN Web, Haines Index ,
WFAS's 10-hr Dead Fuel Moist., WFAS's 100-hr Dead Fuel Moist., Probablity of Ignition, Visual blackness Map, Palmer Drought Index, HPC's Rainfall Forecast Maps


Hazardous Weather Outlook For SIMPSON County, Kentucky
504 AM EST Tue Dec 10 2019 /404 AM CST Tue Dec 10 2019/

 DAY ONE  Today and Tonight.

No hazardous weather is expected at this time.

 DAYS TWO THROUGH SEVEN  Wednesday through Monday.

No hazardous weather is expected at this time.

 SPOTTER INFORMATION STATEMENT  

Spotter activation is not needed at this time.

Latest SIMPSON County, Kentucky Watches, Warnings and Advisories.
Additional Drought Info.: UKAWC Drought Page, Kentucky Drought Watch


7-Day Forecast For SIMPSON County, KY

TODAY
Colder, cloudy. Light snow possibly mixed with rain in the morning, then chance of light snow in the afternoon. Little or no snow accumulation. Highs in the mid 30s. Northwest winds 5 to 15 mph. Chance of precipitation 70 percent.

TONIGHT
Partly cloudy. Lows in the lower 20s. Northwest winds up to 5 mph.

WEDNESDAY
Sunny. Highs in the lower 40s. Southwest winds up to 5 mph.

WEDNESDAY NIGHT
Mostly clear. Lows in the mid 20s. East winds up to 5 mph.

THURSDAY
Partly cloudy. Highs in the upper 40s. East winds around 5 mph.

THURSDAY NIGHT
Mostly cloudy with a 20 percent chance of rain. Lows in the mid 30s.

FRIDAY
Cloudy with a 40 percent chance of rain. Highs in the upper 40s.

FRIDAY NIGHT
Cloudy with a 40 percent chance of rain. Near steady temperature in the lower 40s.

SATURDAY
Cloudy with a 40 percent chance of rain. Highs in the lower 50s.

SATURDAY NIGHT
Partly cloudy with a 20 percent chance of rain. Lows in the mid 30s.

SUNDAY
Partly cloudy. Highs in the upper 40s.

SUNDAY NIGHT
Mostly cloudy with a 30 percent chance of rain. Lows in the mid 30s.

MONDAY
Mostly cloudy with a 50 percent chance of rain. Highs in the upper 40s.

Ag Weather Center, Department of Biosystems & Agricultural Engineering, University of Kentucky